Hourly Data Report for June 12, 2017

BORDEN AWOS
ONTARIO

44°16'20.000" N
79°54'42.000" W
222.50 m
611B002
71534
YBN

Download Data

Hourly Data (June 2017)
Hourly Data Report for June 12, 2017
TIME
LST
Temp Definition
°C
Dew Point Definition
°C
Rel Hum Definition
%
Precip. Amount Definition
mm

Wind Dir Definition
10's deg

Wind Spd Definition
km/h
Visibility Definition
km
Stn Press Definition
kPa
Hmdx Definition


Wind Chill Definition


Weather Definition


00:00 19.2 15.9 81   20 7 14.5 98.72     LegendNANA
01:00 20.8 15.5 72   20 13 14.5 98.76 25   LegendNANA
02:00 18.4 15.3 82   19 11 14.5 98.75     LegendNANA
03:00 18.1 14.9 82     0 14.5 98.72     LegendNANA
04:00 19.7 15.2 75   19 13 14.5 98.72     LegendNANA
05:00 21.1 14.9 68   22 11 14.5 98.78 25   LegendNANA
06:00 22.8 15.2 62   28 7 14.5 98.77 27   LegendNANA
07:00 23.8 15.8 61   27 7 14.5 98.73 28   LegendNANA
08:00 24.4 16.3 61   22 17 14.5 98.73 29   LegendNANA
09:00 26.5 17.3 57   26 15 14.5 98.75 32   LegendNANA
10:00 28.9 17.8 51   24 20 14.5 98.70 35   LegendNANA
11:00 29.1 17.8 51   24 17 14.5 98.73 35   LegendNANA
12:00 29.6 17.5 48   26 28 14.5 98.72 35   LegendNANA
13:00 30.4 17.3 46   25 20 14.5 98.69 36   LegendNANA
14:00 30.4 17.7 47   24 20 14.5 98.65 36   LegendNANA
15:00 30.4 18.2 48   24 22 14.5 98.62 37   LegendNANA
16:00 30.9 18.4 47   24 28 14.5 98.56 37   LegendNANA
17:00 29.8 18.7 51   24 24 14.5 98.56 36   LegendNANA
18:00 29.2 19.0 54   26 17 14.5 98.57 36   LegendNANA
19:00 28.1 19.7 60   28 6 14.5 98.56 35   LegendNANA
20:00 24.9 19.1 70   1 9 14.5 98.59 32   LegendNANA
21:00 24.0 19.1 74     0 14.5 98.61 31   LegendNANA
22:00 22.5 18.5 78   2 4 14.5 98.68 29   LegendNANA
23:00 21.8 18.3 80   35 6 14.5 98.72 28   LegendNANA

Notes on Data Quality.

Legend

  • E = Estimated
  • M = Missing
  • NA = Not Available*
  • [empty] = Indicates an unobserved value
Date modified: